Regional Weather Roundup
Issued by NWS

Home | Current Version | Previous Version | Graphics & Text | Print | Product List | Glossary On
Versions: 1 2 3 4 5 6 7 8 9 10 11 12 13 14 15 16 17 18 19 20 21 22 23 24 25 26 27 28 29 30 31 32 33 34 35 36 37 38 39 40 41 42 43 44 45 46 47 48 49 50
000
ASUS45 KABQ 040201
RWRNM
NEW MEXICO REGIONAL WEATHER ROUNDUP
NATIONAL WEATHER SERVICE ALBUQUERQUE NM
800 PM MDT THU SEP 03 2015

NOTE: "FAIR" MEANS FEW OR NO CLOUDS BELOW 12,000 FEET AGL WITH NO
       SIGNIFICANT WEATHER OR OBSTRUCTIONS TO VISION.

      THIS PRODUCT IS RELEASED AS TWO VERSIONS.  ONE VERSION NEAR
      THE TOP OF THE HOUR CONTAINING PRELIMINARY DATA FROM ALBUQUERQUE
      AND OTHER STATIONS.  A FINAL VERSION WITH ADDITIONAL DATA IS
      ISSUED ABOUT 10 MINUTES AFTER THE HOUR.

NMZ501-503-504-510>518-040300-
NORTHWEST PLATEAU/NORTHCENTRAL MOUNTAINS

CITY           SKY/WX    TMP DP  RH WIND       PRES   REMARKS
FARMINGTON     CLEAR     78  35  21 S5        30.00S
LOS ALAMOS     PTCLDY    72  37  27 W7        30.17R
SANTA FE       PTCLDY    72  34  24 SW8       30.09R
TAOS           MOCLDY    68  41  37 N8        30.16R
ANGEL FIRE     MOCLDY    55  45  67 W5        30.24R

$$
NMZ402-403-502-505>509-040300-
WESTCENTRAL MOUNTAINS/SOUTHWEST MOUNTAINS

CITY           SKY/WX    TMP DP  RH WIND       PRES   REMARKS
GALLUP         CLOUDY    67  48  50 SW20G29   30.15R
GRANTS         CLOUDY    69  42  37 SW10      30.14F
SILVER CITY      N/A     72  54  53 W7        30.13R

$$
NMZ407-409-411-412-040300-
SOUTHERN DESERTS

CITY           SKY/WX    TMP DP  RH WIND       PRES   REMARKS
LORDSBURG      FAIR      73  54  49 W15G23    30.05R
DEMING         CLOUDY    79  56  45 W13       30.03R
LAS CRUCES     CLOUDY    80  52  38 SW8       30.03R
HOLLOMAN AFB   CLOUDY    85  53  33 W8        29.97R
ALAMOGORDO     MOCLDY    81  46  30 S5        29.99R
T OR C         CLOUDY    68  60  75 W13       30.04S

$$
NMZ519>523-040300-
CENTRAL VALLEYS/CENTRAL HIGHLANDS

CITY           SKY/WX    TMP DP  RH WIND       PRES   REMARKS
ALBUQUERQUE    MOCLDY    83  44  25 SW10      30.03R
DOUBLE EAGLE   MOCLDY    79  45  29 S12       30.07R
MORIARTY ARPT  FAIR      73  39  29 W5        30.11R
CLINES CORNERS MOCLDY    66  39  37 SW9       30.15R
BELEN          FAIR      79  42  26 SW15      30.04R
SOCORRO        NOT AVBL

$$
NMZ524>526-539-540-040300-
SOUTHCENTRAL MOUNTAINS

CITY           SKY/WX    TMP DP  RH WIND       PRES   REMARKS
RUIDOSO        CLOUDY    72  43  35 SW13      30.19R

$$
NMZ527>531-040300-
NORTHEAST HIGHLANDS/NORTHEAST PLAINS

CITY           SKY/WX    TMP DP  RH WIND       PRES   REMARKS
LAS VEGAS      PTCLDY    68  46  45 W5        30.12R
RATON          PTCLDY    72  44  36 W7        30.03R
CLAYTON        CLEAR     71  50  47 S10       29.95R

$$
NMZ532>537-040300-
EASTCENTRAL PLAINS

CITY           SKY/WX    TMP DP  RH WIND       PRES   REMARKS
TUCUMCARI      MOCLDY    84  47  27 SW9       29.91R
CANNON AFB     LGT RAIN  78  60  54 SE12      29.97R
CLOVIS AIRPORT MOCLDY    82  50  32 S13       29.99R

$$
NMZ028-029-538-040300-
SOUTHEAST PLAINS

CITY           SKY/WX    TMP DP  RH WIND       PRES   REMARKS
ROSWELL        CLOUDY    88  49  25 S8        29.91R
ARTESIA        CLOUDY    88  48  25 SE13      29.92R
CARLSBAD       CLOUDY    89  44  20 SE7       29.89R
HOBBS          PTCLDY    81  48  32 CALM      29.96R


$$



USA.gov is the U.S. government's official web portal to all federal, state and local government web resources and services.